Location: Unspecified
(0.0000°N, 0.0000°E)
Time: 03:41:03
(UTC+00:00)

SKYMED 2 - Visible Passes

Search period start: 28 June 2017 00:00
Search period end: 08 July 2017 00:00
Orbit: 621 x 623 km, 97.9° (Epoch: 26 June)

Date Brightness Start Highest point End Pass type
(mag) Time Alt. Az. Time Alt. Az. Time Alt. Az.
28 Jun 6.2 05:01:35 10° SE 05:05:03 23° ENE 05:08:29 10° NNE visible
28 Jun 7.4 18:49:13 10° WNW 18:49:51 10° WNW 18:50:29 10° W visible
29 Jun 5.0 05:18:55 10° SSE 05:23:01 42° ENE 05:27:05 10° N visible
30 Jun 3.8 05:36:40 10° SSE 05:41:00 79° ENE 05:45:19 10° N visible
02 Jul 7.1 04:40:09 10° E 04:41:04 11° ENE 04:42:00 10° ENE visible
03 Jul 6.5 04:55:56 10° SE 04:59:02 19° ENE 05:02:08 10° NNE visible
03 Jul 7.0 18:41:55 10° NW 18:43:50 13° WNW 18:45:47 10° WSW visible
04 Jul 5.5 05:13:05 10° SE 05:17:01 34° ENE 05:20:56 10° NNE visible
05 Jul 4.1 05:30:42 10° SSE 05:34:59 64° E 05:39:16 10° N visible
